[[{"header":{"parameterUnit":"m.s-1","parameterCategory":1,"la1":30.2991,"la2":30.254,"lo1":-89.0895,"lo2":-89.0444,"dy":0.0017,"dx":0.0017,"nx":28,"ny":28,"refTime":"2025-12-27T03:00:00:Z","depth":0,"parameterNumber":2,"parameterNumberName":"U-component_of_WINDS"},"data":[0,0,0,0,0,0,0,0,0,0,0,0,0,0,0,0,0,0,0,0,0,0,0,0,0,0,0,0,0,0,0,0,0,0,0,0,0,0,0,0,0,0,0,0,0,0,0,0,0,0,0,0,0,0,0,0,0,0,-1.8264,-1.8264,0,-1.8247,-1.8247,-1.8247,-1.8199,-1.8198,-1.8197,-1.8196,-1.8179,-1.818,-1.818,0,0,0,0,0,0,0,0,0,0,0,0,0,-1.8258,-1.8259,-1.8264,-1.8264,-1.8264,-1.8247,-1.8247,-1.8247,-1.8199,-1.8198,-1.8197,-1.8196,-1.8179,-1.818,-1.818,0,0,0,0,0,0,0,0,0,0,0,0,0,-1.8253,-1.8259,-1.8264,-1.8238,-1.8236,-1.8247,-1.8247,-1.8247,-1.8199,-1.8198,-1.8196,-1.8195,-1.8179,-1.818,-1.818,-1.8216,0,0,-1.8183,-1.8183,0,0,0,0,0,0,0,0,-1.8253,-1.8253,-1.8242,-1.824,-1.8237,-1.8224,-1.8239,-1.8236,-1.82,-1.8213,-1.8196,-1.8194,-1.8195,-1.8195,-1.8195,-1.8215,-1.8215,-1.8183,-1.8183,-1.8184,-1.8184,0,0,0,0,0,0,0,-1.8254,-1.8254,-1.8258,-1.8242,-1.8239,-1.8228,-1.8226,-1.8238,-1.8213,-1.8212,-1.8208,-1.8207,-1.8194,-1.8194,-1.8194,-1.8214,-1.8183,-1.8184,-1.8184,-1.8184,-1.8264,-1.8265,0,0,0,0,0,0,-1.8258,-1.8254,-1.8258,-1.8257,-1.8242,-1.8229,-1.8227,-1.823,-1.8213,-1.8209,-1.8208,-1.8205,-1.8194,-1.8193,-1.8193,-1.8233,-1.8184,-1.8184,-1.8185,-1.8262,-1.8264,-1.8266,0,0,0,0,0,0,-1.8258,-1.8258,-1.8259,-1.8255,-1.8254,-1.8231,-1.8235,-1.823,-1.823,-1.821,-1.8206,-1.8213,-1.8192,-1.8192,-1.8211,-1.8232,-1.8185,-1.8185,-1.826,-1.8263,-1.8265,-1.8314,0,0,0,0,0,0,-1.8258,-1.8259,-1.8271,-1.8255,-1.8254,-1.8276,-1.8236,-1.8231,-1.8232,-1.8227,-1.8214,-1.821,-1.8191,-1.821,-1.8212,-1.8232,-1.8186,-1.8258,-1.8261,-1.8264,-1.8311,-1.8318,-1.8325,0,0,0,0,0,-1.8258,-1.8286,-1.8272,-1.8273,-1.827,-1.8277,-1.8277,-1.8254,-1.8234,-1.8247,-1.8234,-1.821,-1.823,-1.8212,-1.8214,-1.8235,-1.8257,-1.826,-1.8264,-1.8308,-1.8317,-1.8325,0,0,0,0,0,0,-1.8305,-1.8284,-1.8268,-1.8292,-1.8287,-1.8269,-1.8284,-1.8265,-1.8266,-1.8261,-1.8234,-1.8231,-1.8254,-1.8247,-1.8227,-1.8269,-1.824,-1.8244,-1.8272,-1.8281,-1.8288,-1.8288,-1.8187,0,0,0,0,0,-1.8319,-1.8326,-1.8307,-1.8331,-1.8329,-1.8308,-1.831,-1.8293,-1.8287,-1.8285,-1.8273,-1.8268,-1.8273,-1.8277,-1.8281,-1.8311,-1.8307,-1.8326,-1.8333,-1.8339,-1.8342,-1.8357,-1.8365,-1.8278,-1.8278,-1.8278,0,0,-1.8346,-1.8336,-1.8342,-1.834,-1.8334,-1.8343,-1.8306,-1.8317,-1.8323,-1.8286,-1.8302,-1.8294,-1.8287,-1.8312,-1.8322,-1.8306,-1.8366,-1.8344,-1.8349,-1.8348,-1.8362,-1.837,-1.8378,-1.8281,-1.828,-1.828,0,0,-1.8401,-1.8394,-1.8412,-1.8407,-1.8398,-1.8384,-1.8389,-1.8375,-1.8368,-1.8384,-1.8356,-1.8364,-1.8374,-1.837,-1.8369,-1.8424,-1.8402,-1.8426,-1.8462,-1.8477,-1.8483,-1.8489,-1.8508,-1.8515,-1.843,-1.843,-1.843,0,-1.8436,-1.8447,-1.8424,-1.8436,-1.8436,-1.8404,-1.8423,-1.8419,-1.8413,-1.8414,-1.8397,-1.8408,-1.8401,-1.8424,-1.8437,-1.8438,-1.8443,-1.8426,-1.8484,-1.849,-1.8495,-1.8513,-1.852,-1.8433,-1.8433,-1.8432,-1.8432,0,-1.8491,-1.8499,-1.8515,-1.8509,-1.8511,-1.8527,-1.8506,-1.8512,-1.8496,-1.8484,-1.8501,-1.8492,-1.8493,-1.8498,-1.8482,-1.8519,-1.8509,-1.8489,-1.8458,-1.8507,-1.8522,-1.8529,-1.8437,-1.8436,-1.8435,-1.8434,0,0,-1.8572,-1.8554,-1.856,-1.8557,-1.8546,-1.8553,-1.8568,-1.8568,-1.8573,-1.8571,-1.8582,-1.8592,-1.8573,-1.8572,-1.8557,-1.857,-1.8613,-1.8548,-1.8547,-1.8559,-1.8652,-1.8665,-1.8674,-1.86,-1.8601,-1.8602,-1.8652,0,-1.8622,-1.8645,-1.8625,-1.8652,-1.866,-1.863,-1.8643,-1.8638,-1.8628,-1.8634,-1.8623,-1.863,-1.8605,-1.8605,-1.8617,-1.8605,-1.8631,-1.8602,-1.861,-1.861,-1.861,-1.8682,-1.8696,-1.8744,-1.8658,-1.8659,-1.866,0,-1.8682,-1.8682,-1.871,-1.8698,-1.87,-1.8712,-1.8711,-1.8717,-1.8712,-1.8704,-1.8704,-1.8685,-1.8699,-1.8671,-1.869,-1.8671,-1.8673,-1.8668,-1.867,-1.8668,-1.8636,-1.868,-1.8758,-1.8765,-1.867,-1.8669,-1.8668,0,-1.8737,-1.8744,-1.8762,-1.876,-1.8747,-1.8756,-1.8751,-1.8744,-1.8746,-1.8746,-1.8747,-1.875,-1.875,-1.8753,-1.8735,-1.8717,-1.8757,-1.8727,-1.875,-1.875,-1.8757,-1.8757,-1.8835,-1.8763,-1.8762,-1.8762,-1.8762,0,-1.8794,-1.8812,-1.8786,-1.8796,-1.8816,-1.8794,-1.8814,-1.8806,-1.88,-1.8809,-1.8785,-1.8794,-1.8771,-1.8778,-1.8764,-1.8782,-1.8783,-1.8776,-1.8772,-1.8777,-1.8778,-1.8777,-1.8772,-1.8764,-1.8764,-1.8763,-1.8763,0,-1.8857,-1.8841,-1.8858,-1.8844,-1.8841,-1.8856,-1.8844,-1.8854,-1.8843,-1.8854,-1.8856,-1.8839,-1.8846,-1.8829,-1.8834,-1.8825,-1.8849,-1.8841,-1.8851,-1.8847,-1.887,-1.8867,-1.8949,-1.8958,-1.8882,-1.8882,-1.8883,0,-1.8893,-1.8906,-1.8894,-1.8898,-1.8894,-1.8901,-1.8903,-1.8883,-1.8886,-1.8882,-1.8892,-1.8897,-1.8899,-1.8912,-1.89,-1.8903,-1.8894,-1.8922,-1.8894,-1.8899,-1.8892,-1.8891,-1.8892,-1.8927,-1.8928,-1.8929,-1.8929,0,-1.8959,-1.8951,-1.8954,-1.8955,-1.8958,-1.8958,-1.8957,-1.8962,-1.894,-1.8945,-1.8951,-1.8954,-1.8958,-1.8963,-1.8964,-1.896,-1.8941,-1.8939,-1.8944,-1.8948,-1.8952,-1.8949,-1.8864,-1.8936,-1.8936,-1.8935,-1.8935,-1.8934,-1.9009,-1.9019,-1.9012,-1.9017,-1.9014,-1.9013,-1.9021,-1.9011,-1.9016,-1.9018,-1.9006,-1.9015,-1.901,-1.901,-1.9007,-1.9015,-1.9002,-1.9009,-1.9011,-1.9013,-1.9016,-1.8953,-1.9015,-1.9015,-1.9015,-1.9014,-1.9014,0,-1.9072,-1.9066,-1.9071,-1.9069,-1.9074,-1.9056,-1.9054,-1.9058,-1.9066,-1.9063,-1.9067,-1.9074,-1.9079,-1.9069,-1.9072,-1.908,-1.9072,-1.9082,-1.908,-1.9079,-1.9028,-1.9022,-1.9088,-1.9088,-1.9088,-1.9088,-1.9088,-1.9088,-1.9105,-1.912,-1.9111,-1.9126,-1.912,-1.9128,-1.9128,-1.9128,-1.9125,-1.9135,-1.9139,-1.9132,-1.9126,-1.9129,-1.9133,-1.913,-1.9131,-1.9144,-1.9138,-1.909,-1.9082,-1.9075,-1.907,-1.9145,-1.9145,-1.9188,-1.9188,-1.9189]},{"header":{"parameterUnit":"m.s-1","parameterCategory":1,"la1":30.2991,"la2":30.254,"lo1":-89.0895,"lo2":-89.0444,"dy":0.0017,"dx":0.0017,"nx":28,"ny":28,"refTime":"2025-12-27T03:00:00:Z","depth":0,"parameterNumber":3,"parameterNumberName":"V-component_of_WINDS"},"data":[0,0,0,0,0,0,0,0,0,0,0,0,0,0,0,0,0,0,0,0,0,0,0,0,0,0,0,0,0,0,0,0,0,0,0,0,0,0,0,0,0,0,0,0,0,0,0,0,0,0,0,0,0,0,0,0,0,0,2.9038,2.9039,0,2.9115,2.9116,2.9117,2.9166,2.9166,2.9166,2.9166,2.9242,2.9244,2.9245,0,0,0,0,0,0,0,0,0,0,0,0,0,2.893,2.8932,2.9038,2.9039,2.904,2.9115,2.9116,2.9117,2.9166,2.9166,2.9166,2.9167,2.9241,2.9243,2.9246,0,0,0,0,0,0,0,0,0,0,0,0,0,2.8989,2.8932,2.9038,2.9073,2.9077,2.9115,2.9116,2.9118,2.9165,2.9166,2.9166,2.9167,2.9241,2.9243,2.9246,2.9254,0,0,2.9254,2.9255,0,0,0,0,0,0,0,0,2.8985,2.8993,2.9067,2.9071,2.9075,2.9131,2.9106,2.9163,2.9165,2.9132,2.9166,2.9167,2.9205,2.921,2.9224,2.9257,2.926,2.9254,2.9256,2.9257,2.9258,0,0,0,0,0,0,0,2.8981,2.899,2.9069,2.9068,2.9073,2.9084,2.9093,2.9117,2.9165,2.9135,2.9138,2.9147,2.9207,2.9221,2.9226,2.9261,2.9254,2.9256,2.9258,2.9259,2.9307,2.9306,0,0,0,0,0,0,2.8972,2.8986,2.9066,2.9071,2.9031,2.9086,2.9096,2.9113,2.9165,2.9173,2.9147,2.9149,2.9216,2.9223,2.9229,2.9243,2.9257,2.9259,2.9261,2.9307,2.9306,2.9306,0,0,0,0,0,0,2.8969,2.8979,2.9063,2.903,2.9041,2.9087,2.9106,2.9114,2.9128,2.9174,2.9182,2.9153,2.9217,2.9225,2.9248,2.9246,2.926,2.9263,2.9307,2.9307,2.9306,2.9269,0,0,0,0,0,0,2.8966,2.8978,2.8981,2.9029,2.9043,2.9081,2.9106,2.9115,2.9133,2.9137,2.9181,2.9189,2.9218,2.9243,2.925,2.925,2.9265,2.9308,2.9307,2.9306,2.9271,2.9268,2.9265,0,0,0,0,0,2.8962,2.8967,2.8981,2.8991,2.9049,2.9081,2.9089,2.9123,2.9133,2.9137,2.9166,2.9188,2.9245,2.9245,2.9253,2.9253,2.9308,2.9307,2.9306,2.9272,2.9268,2.9265,0,0,0,0,0,0,2.8916,2.8974,2.899,2.9011,2.9041,2.9089,2.9096,2.9117,2.9144,2.9146,2.9186,2.9196,2.9215,2.9236,2.9236,2.9264,2.9279,2.928,2.925,2.9246,2.9243,2.9238,2.9267,0,0,0,0,0,2.8908,2.8931,2.8979,2.8993,2.9007,2.9049,2.9064,2.9088,2.912,2.9132,2.9163,2.9193,2.9218,2.9233,2.9258,2.9274,2.9285,2.9278,2.9275,2.9272,2.9273,2.9284,2.9282,2.9304,2.9304,2.9304,0,0,2.8892,2.8927,2.8938,2.8984,2.9011,2.9033,2.9059,2.908,2.9097,2.9135,2.916,2.9183,2.9219,2.9238,2.9248,2.9257,2.9269,2.9271,2.9269,2.9271,2.9283,2.9281,2.9279,2.9303,2.9303,2.9303,0,0,2.8875,2.8903,2.8918,2.8944,2.8984,2.9012,2.9015,2.9061,2.9078,2.9103,2.9133,2.9153,2.9194,2.9219,2.9237,2.923,2.9251,2.9236,2.9221,2.9231,2.923,2.9228,2.9227,2.9226,2.9237,2.9237,2.9237,0,2.885,2.8885,2.8922,2.8944,2.8963,2.9,2.9016,2.9039,2.9084,2.9096,2.9105,2.9159,2.9185,2.9212,2.9211,2.9223,2.9229,2.9232,2.9227,2.9226,2.9225,2.9225,2.9224,2.9235,2.9235,2.9235,2.9235,0,2.8853,2.8877,2.8884,2.893,2.895,2.8967,2.9007,2.9023,2.9045,2.9071,2.9097,2.913,2.9163,2.9171,2.9191,2.9201,2.9205,2.922,2.9235,2.9221,2.9221,2.9221,2.9232,2.9233,2.9233,2.9234,0,0,2.8809,2.8876,2.8878,2.8899,2.8946,2.8965,2.8984,2.9018,2.9032,2.9061,2.9079,2.9114,2.9129,2.9149,2.9173,2.9181,2.9176,2.9196,2.9197,2.9192,2.9189,2.9178,2.9177,2.9189,2.9189,2.919,2.9186,0,2.88,2.8839,2.8873,2.8899,2.8922,2.8958,2.8975,2.9005,2.903,2.9053,2.908,2.9105,2.9122,2.9135,2.9145,2.9174,2.9176,2.9175,2.9206,2.9207,2.9198,2.9177,2.9166,2.9161,2.9186,2.9186,2.9186,0,2.8794,2.8825,2.8853,2.89,2.8911,2.8926,2.896,2.8981,2.9016,2.9034,2.9057,2.9083,2.9105,2.9117,2.9148,2.9147,2.9161,2.9177,2.9178,2.9183,2.9196,2.9183,2.916,2.916,2.9186,2.9186,2.9186,0,2.8761,2.8809,2.8833,2.885,2.8904,2.8914,2.8936,2.8972,2.8991,2.902,2.9033,2.9064,2.9081,2.9104,2.9137,2.9143,2.9165,2.9179,2.918,2.9179,2.9184,2.9183,2.9165,2.9191,2.9191,2.9191,2.9191,0,2.8748,2.8764,2.8819,2.8834,2.8853,2.8892,2.891,2.8936,2.8967,2.8987,2.9019,2.9036,2.9079,2.9101,2.9127,2.9149,2.9156,2.9171,2.9178,2.9169,2.9167,2.918,2.9181,2.9191,2.9191,2.9191,2.9191,0,2.8714,2.8751,2.878,2.883,2.8842,2.8855,2.8897,2.8912,2.8939,2.8964,2.8972,2.9015,2.9043,2.9078,2.9117,2.9135,2.9154,2.9164,2.9143,2.9147,2.9147,2.9147,2.9136,2.9138,2.9162,2.9161,2.9161,0,2.8704,2.8718,2.8769,2.8786,2.8808,2.8834,2.8854,2.8893,2.8912,2.8953,2.8964,2.8995,2.9022,2.9065,2.9099,2.9129,2.9141,2.9135,2.9145,2.9136,2.9142,2.9141,2.9143,2.9132,2.9132,2.9132,2.9131,0,2.8682,2.87,2.8729,2.8764,2.8787,2.8816,2.8846,2.8857,2.8902,2.8921,2.8952,2.8973,2.9014,2.9044,2.9079,2.9101,2.9124,2.9128,2.913,2.9122,2.911,2.9117,2.9137,2.9128,2.9128,2.9129,2.9129,2.9129,2.8661,2.8676,2.8715,2.8746,2.8773,2.88,2.8818,2.8848,2.8875,2.8913,2.8933,2.8963,2.8998,2.9048,2.9069,2.9092,2.9101,2.9103,2.9104,2.9104,2.9102,2.9105,2.9099,2.9099,2.9099,2.9099,2.9099,0,2.8642,2.867,2.8697,2.874,2.8764,2.8784,2.8819,2.8837,2.8864,2.8895,2.8922,2.8957,2.8987,2.9024,2.9056,2.9068,2.9079,2.9075,2.9075,2.908,2.9092,2.9088,2.9066,2.9066,2.9066,2.9066,2.9066,2.9066,2.8636,2.8662,2.8685,2.8725,2.8752,2.8783,2.8801,2.8827,2.8853,2.8891,2.8917,2.8941,2.8975,2.901,2.9038,2.9048,2.9059,2.9052,2.9065,2.9076,2.9079,2.9082,2.9078,2.9054,2.9054,2.9051,2.9051,2.9051]}]]